Location: ??????????
(54.4061°N, 22.6114°E)
Time: 05:26:05
(UTC+00:00)

Envisat - Pass Details

Date: 23 October 2019
Orbit: 764 x 766 km, 98.1° (Epoch: 11 November)

Event Time Altitude Azimuth Distance (km) Brightness Sun altitude
Rises 15:40:28 0° 146° (SSE) 3,225 6.0 -4.5°
Reaches altitude 10° 15:42:48 10° 142° (SE) 2,303 5.2 -4.8°
Maximum altitude 15:47:43 52° 67° (ENE) 950 3.2 -5.5°
Drops below altitude 10° 15:52:40 10° 352° (N) 2,317 5.5 -6.2°
Sets 15:55:01 0° 348° (NNW) 3,247 6.3 -6.6°
